Location: Antioch Baptist Church
(32.6696°N, 85.7327°W)
Time: 21:07:04
(UTC+00:00)

COSMOS 2406 - Pass Details

Date: 14 July 2020
Orbit: 844 x 863 km, 71.0° (Epoch: 13 August)

Event Time Altitude Azimuth Distance (km) Brightness Sun altitude
Exits shadow 07:37:51 42° 311° (NW) 1,221 4.0 -29.8°
Drops below altitude 10° 07:42:42 10° 6° (N) 2,504 6.4 -29.3°
Sets 07:45:18 0° 13° (NNE) 3,443 7.4 -29.0°
